Wind_Speed
16 15 15 12 9 10 11 11 10 14 20 15 14 16 8 13 11 11 13 14 19 22 25 27 29 31 32 33 30 30 31 33 33 35 37 39 43 46 48 49 52 51 43 39
23 22 21 21 17 15 17 19 16 11 11 9 16 13 11 10 18 17 16 15 14 18 21 28 30 30 31 29 28 30 33 33 34 37 39 44 48 53 55 57 54 40 39 34
17 14 14 16 24 25 22 24 22 21 19 13 12 15 13 12 14 19 17 16 17 17 20 21 20 22 25 27 30 31 32 34 38 42 44 47 50 54 57 56 41 38 36 22
14 14 1 15 11 10 14 14 12 8 9 8 10 12 8 7 9 11 13 15 18 19 20 21 21 24 27 26 28 31 36 40 43 44 47 52 57 58 55 39 39 32 20 22
8 14 12 11 9 13 12 9 9 8 10 10 9 7 6 11 12 14 14 16 20 20 21 23 25 22 23 26 31 35 40 43 46 49 54 55 55 51 37 40 31 20 22 28
12 5 7 9 20 15 14 14 13 10 8 7 9 10 14 16 18 18 19 21 22 24 22 20 20 22 25 30 34 38 43 49 54 56 55 55 42 41 43 30 20 22 27 32
19 12 9 14 13 11 13 11 16 15 14 13 14 18 24 26 26 24 23 21 19 20 21 22 22 21 24 30 35 42 50 53 52 47 51 40 40 38 25 24 22 27 31 31
19 12 11 15 18 20 15 12 13 12 12 15 22 23 21 20 20 20 20 21 23 25 28 30 28 24 25 28 30 31 32 34 39 38 39 38 30 25 24 24 27 30 31 31
13 9 9 8 12 11 11 11 11 12 17 18 17 18 19 20 21 22 23 24 26 30 32 30 24 25 29 31 35 35 38 36 37 35 31 27 28 27 27 29 31 31 33 32
13 14 11 10 12 14 15 15 16 16 17 17 19 20 21 22 22 23 25 28 32 32 26 25 27 29 31 33 33 34 29 26 26 27 28 28 29 30 32 32 33 33 32 32
17 14 15 16 16 17 18 19 19 19 19 20 24 26 25 24 25 25 29 32 29 30 28 26 24 23 22 21 21 22 24 25 26 28 29 29 31 32 34 34 36 36 35 34
22 19 18 18 20 20 20 20 20 21 23 25 28 25 23 24 25 30 29 28 29 27 23 21 18 18 19 21 21 22 23 26 28 29 30 32 34 35 35 37 38 38 38 39
16 15 16 16 18 20 21 23 25 27 28 28 25 25 24 26 30 28 27 26 22 20 18 19 20 20 20 22 24 26 28 29 30 32 34 36 38 40 42 40 41 39 38 38
15 15 17 18 20 21 22 24 26 28 27 27 26 27 28 25 26 22 20 19 19 18 19 20 21 22 24 26 28 30 31 33 35 37 38 40 41 43 45 46 47 47 37 35
16 17 22 23 24 24 24 26 28 28 28 27 28 26 22 20 17 17 18 18 18 19 20 21 22 25 27 29 31 33 35 37 39 41 44 47 49 50 50 50 50 48 44 43
18 21 25 26 25 25 27 27 27 27 27 25 21 19 17 17 16 17 17 17 18 19 21 23 25 27 29 31 33 36 38 41 44 46 48 50 50 51 52 51 50 49 48 46
22 26 28 27 27 25 24 25 26 23 18 16 15 16 16 16 16 16 17 18 20 22 24 26 28 30 33 36 39 41 44 47 49 51 51 50 50 48 46 44 44 43 43 37
25 29 29 25 24 25 24 23 20 14 12 14 15 14 14 14 15 16 18 21 23 25 28 29 32 35 38 41 44 47 49 51 51 51 50 48 45 43 41 40 39 37 37 36
32 28 23 22 22 21 20 16 13 14 14 13 13 13 14 15 16 18 20 22 25 27 30 33 36 39 43 46 48 50 50 50 49 47 45 43 42 41 39 37 33 31 31 27
26 22 21 19 16 14 13 13 12 13 13 13 14 15 15 17 19 21 23 25 28 31 35 38 41 44 47 48 49 50 49 47 45 43 42 41 40 39 37 34 30 29 26 25
21 17 12 10 10 11 13 12 12 12 13 14 15 16 17 19 21 24 27 30 32 35 39 42 46 47 48 49 49 47 46 44 43 42 41 40 39 37 35 33 31 30 30 30
12 9 8 10 13 12 10 11 11 12 13 14 16 18 20 23 25 28 30 33 37 40 44 46 46 46 47 46 45 44 43 42 41 40 39 38 37 36 34 32 31 31 33 36
8 11 14 12 10 10 11 12 12 14 15 16 18 21 23 26 28 30 33 37 41 44 44 45 45 45 44 43 42 42 41 39 39 37 36 36 35 34 32 31 31 30 30 31
12 11 10 10 11 12 13 14 15 17 18 20 22 25 27 29 31 34 38 42 44 43 43 43 42 42 41 40 39 39 37 37 36 34 34 33 32 31 31 30 30 30 29 29
10 11 13 13 13 15 18 18 19 20 22 23 26 28 30 32 34 39 42 42 42 42 41 41 40 40 40 39 37 36 35 34 33 33 32 31 30 29 28 28 28 27 27 26
14 15 16 18 20 22 24 24 24 23 23 25 28 30 33 36 39 41 41 41 41 40 40 40 39 39 40 38 35 33 33 32 31 31 30 29 28 27 27 26 26 26 25 24
19 21 23 24 26 27 28 28 26 24 25 28 30 32 36 39 39 39 39 40 41 40 40 39 39 39 39 37 33 32 31 31 30 29 29 29 28 27 27 26 26 25 25 23
Wind_Direction
233 232 237 253 246 244 257 261 264 273 263 282 287 296 278 246 247 241 246 255 259 267 274 278 280 283 289 289 295 304 307 306 306 305 303 302 302 302 299 296 293 288 299 315
230 231 246 263 255 246 245 259 273 268 265 266 274 256 265 232 225 240 245 256 268 281 277 273 274 279 288 293 302 306 305 305 302 297 299 302 301 301 296 292 287 294 309 303
237 248 256 266 261 261 262 263 270 266 270 267 228 222 210 204 210 219 231 250 279 287 287 284 282 281 292 298 297 301 301 296 294 296 297 294 294 294 287 279 289 301 303 306
233 238 312 272 258 229 221 240 243 237 213 223 216 211 215 224 237 258 277 287 287 283 279 286 285 294 293 291 295 295 292 294 295 292 291 293 289 289 276 278 300 297 302 311
204 214 247 248 228 206 218 179 192 216 211 216 222 226 272 285 288 293 293 290 285 288 287 290 291 295 298 298 290 289 287 282 279 275 275 270 269 267 283 303 292 303 306 303
210 199 204 255 230 231 233 202 206 217 227 239 253 268 293 292 303 302 299 298 299 302 300 299 299 298 294 286 281 282 280 276 269 260 261 266 271 292 302 299 302 297 302 305
224 222 240 228 201 203 210 220 223 232 248 254 265 284 299 303 301 301 302 300 300 300 296 295 296 295 287 280 278 277 272 267 274 277 278 285 294 298 294 297 292 299 305 307
217 222 250 231 219 224 244 252 248 247 259 280 295 297 296 297 298 302 303 301 296 295 296 298 298 294 286 285 282 284 294 297 285 285 286 293 297 292 288 290 298 300 303 306
204 225 221 200 217 236 248 260 260 268 291 294 294 297 299 299 298 295 292 290 292 295 298 300 294 287 283 283 283 282 293 288 287 290 295 294 287 284 290 296 298 302 304 305
216 217 210 224 236 241 252 251 267 291 298 294 300 301 295 291 287 287 288 292 296 301 295 290 287 283 281 281 283 290 293 293 292 290 286 285 289 293 295 297 298 300 301 301
227 229 222 228 236 251 265 272 277 287 292 288 289 297 295 291 289 289 295 299 298 299 298 295 293 291 291 291 290 291 291 290 289 287 287 289 290 292 294 296 297 300 302 300
232 243 242 244 251 261 259 261 273 280 279 277 285 289 287 286 284 293 295 291 292 293 291 294 293 290 289 293 296 295 292 291 291 292 292 294 295 296 295 296 297 298 298 298
242 251 257 258 259 262 263 269 274 278 279 283 284 284 281 283 287 288 288 289 288 290 291 292 294 297 299 301 301 301 301 299 298 299 300 300 299 298 298 297 295 294 295 294
247 250 251 257 262 266 267 269 272 275 278 279 278 281 285 282 288 287 283 282 284 289 294 299 304 307 306 305 305 305 304 304 304 303 302 301 299 297 295 295 294 293 291 286
248 256 255 254 259 264 269 272 274 275 278 282 283 287 287 283 279 277 277 282 292 300 304 305 306 307 306 306 306 306 306 306 305 304 304 303 301 298 296 294 293 291 287 285
254 259 254 257 263 269 272 273 272 273 276 280 282 280 275 275 277 283 289 297 302 304 305 305 305 304 305 306 306 306 306 305 305 304 303 300 299 298 297 295 292 289 287 286
258 260 261 264 269 271 269 269 271 276 275 270 268 271 274 280 288 294 298 301 304 304 304 305 307 309 310 310 310 310 310 309 308 307 306 305 304 302 300 298 296 293 288 284
255 257 259 263 269 270 270 271 270 263 254 261 265 273 283 289 293 299 303 303 304 306 308 311 311 312 312 311 312 312 312 312 311 310 309 308 306 305 304 303 301 297 293 282
256 259 262 265 268 268 266 256 244 258 269 271 276 282 287 291 294 298 301 304 307 306 307 308 310 312 313 314 314 314 313 313 312 311 310 308 307 306 305 302 299 299 305 295
261 265 268 270 261 248 239 252 264 264 266 275 281 286 290 293 299 304 305 303 303 306 310 313 315 315 315 316 316 315 314 314 313 313 311 310 309 307 304 299 292 288 280 280
259 262 258 243 255 259 265 258 255 266 275 281 285 289 292 298 302 302 305 309 311 313 314 316 317 317 317 316 316 316 316 316 315 314 313 313 312 310 307 302 292 280 277 276
247 245 237 250 254 249 249 259 268 277 282 286 289 293 298 302 305 306 308 310 313 316 317 317 317 317 317 317 317 317 316 317 316 316 317 316 315 315 315 311 303 289 276 270
233 243 249 249 249 255 263 271 280 286 289 292 295 298 301 303 305 308 312 313 315 315 316 316 317 317 318 318 317 317 317 317 317 319 318 318 318 318 317 316 313 309 295 289
253 255 256 259 266 271 273 279 289 293 294 294 295 298 301 304 308 311 312 314 314 314 315 316 317 316 316 317 317 317 317 318 320 320 318 320 320 319 319 318 316 311 306 298
261 263 266 273 280 276 274 279 286 289 291 294 299 303 303 305 308 311 312 311 311 313 315 315 315 315 315 317 317 317 317 319 321 321 322 324 325 325 323 323 322 318 315 309
267 273 278 278 281 278 275 275 280 283 287 295 299 301 303 306 308 310 309 309 311 314 314 315 315 315 315 316 316 316 316 318 321 322 325 326 326 326 326 325 325 325 323 319
271 274 276 278 280 271 266 265 270 274 286 295 297 299 303 305 307 307 308 310 312 314 315 314 314 315 315 315 315 315 315 317 319 321 324 325 325 325 324 324 324 324 325 324
Height
3099 3100 3099 3100 3101 3101 3100 3101 3101 3101 3100 3100 3099 3098 3098 3099 3098 3098 3099 3099 3099 3098 3098 3098 3097 3096 3094 3094 3093 3092 3089 3087 3084 3081 3078 3074 3070 3066 3060 3055 3049 3044 3045 3044
3095 3094 3094 3095 3096 3096 3096 3096 3096 3097 3096 3095 3094 3094 3095 3096 3096 3095 3095 3095 3094 3094 3093 3092 3091 3091 3089 3088 3087 3084 3082 3079 3077 3074 3070 3065 3060 3055 3050 3043 3039 3042 3040 3036
3089 3090 3090 3090 3090 3090 3092 3091 3091 3091 3091 3091 3091 3091 3092 3093 3094 3093 3093 3092 3092 3091 3089 3087 3086 3086 3084 3082 3080 3078 3075 3072 3069 3065 3060 3055 3050 3044 3039 3034 3039 3037 3033 3029
3086 3086 3088 3085 3084 3084 3084 3085 3085 3086 3086 3088 3089 3089 3089 3090 3089 3089 3089 3088 3087 3085 3084 3083 3081 3080 3078 3076 3073 3071 3068 3064 3060 3055 3050 3044 3039 3034 3029 3033 3032 3029 3026 3022
3081 3081 3081 3081 3082 3081 3081 3083 3083 3084 3084 3085 3085 3086 3086 3084 3084 3084 3084 3083 3081 3080 3079 3077 3076 3073 3071 3069 3066 3063 3060 3055 3049 3045 3039 3034 3028 3025 3028 3027 3024 3021 3019 3015
3077 3078 3079 3075 3077 3078 3078 3079 3079 3080 3081 3082 3082 3082 3081 3078 3079 3079 3078 3077 3075 3073 3070 3069 3067 3066 3064 3062 3059 3055 3050 3044 3037 3029 3026 3025 3027 3028 3023 3018 3016 3014 3010 3007
3072 3073 3071 3072 3073 3074 3076 3079 3076 3077 3077 3078 3079 3078 3075 3074 3073 3073 3072 3070 3068 3066 3063 3062 3060 3058 3057 3054 3050 3044 3037 3032 3032 3033 3028 3028 3024 3019 3015 3011 3008 3006 3003 2999
3068 3070 3068 3065 3068 3070 3071 3071 3072 3073 3074 3074 3073 3071 3071 3069 3068 3066 3065 3063 3061 3058 3055 3053 3050 3049 3049 3046 3044 3041 3038 3035 3031 3027 3023 3019 3014 3011 3008 3005 3002 2999 2995 2992
3062 3061 3061 3061 3063 3064 3066 3067 3068 3069 3069 3069 3068 3066 3065 3063 3062 3060 3058 3056 3053 3051 3048 3045 3043 3042 3040 3038 3035 3032 3029 3025 3022 3018 3014 3010 3007 3004 3002 2999 2995 2991 2987 2983
3057 3057 3057 3058 3059 3060 3062 3064 3064 3065 3064 3063 3062 3060 3059 3058 3056 3054 3051 3049 3047 3044 3042 3039 3037 3035 3032 3029 3026 3023 3020 3017 3014 3011 3008 3005 3001 2998 2994 2990 2986 2982 2979 2975
3051 3052 3053 3054 3054 3055 3056 3056 3057 3058 3057 3056 3055 3054 3052 3050 3048 3046 3044 3041 3038 3036 3033 3030 3027 3025 3023 3021 3019 3017 3014 3011 3008 3004 3001 2997 2993 2989 2985 2981 2977 2973 2969 2965
3045 3048 3049 3051 3051 3051 3051 3051 3051 3051 3050 3049 3048 3047 3045 3043 3041 3039 3036 3033 3030 3028 3026 3023 3021 3019 3017 3015 3013 3010 3007 3004 3000 2996 2992 2988 2984 2980 2976 2971 2967 2963 2958 2954
3042 3044 3045 3046 3046 3046 3046 3046 3046 3045 3043 3042 3041 3039 3038 3036 3034 3030 3028 3025 3023 3021 3020 3018 3016 3014 3012 3009 3006 3003 3000 2996 2992 2988 2983 2979 2974 2969 2964 2961 2956 2953 2949 2943
3036 3038 3039 3039 3039 3040 3040 3040 3039 3037 3036 3035 3033 3031 3030 3028 3026 3024 3021 3019 3018 3017 3015 3012 3009 3006 3004 3001 2998 2995 2991 2987 2983 2979 2974 2969 2964 2959 2953 2947 2942 2939 2938 2935
3029 3031 3032 3032 3033 3033 3033 3031 3030 3029 3028 3026 3024 3023 3022 3021 3019 3017 3016 3014 3013 3011 3008 3005 3003 3001 2998 2994 2991 2987 2983 2978 2973 2968 2962 2956 2950 2943 2938 2932 2927 2923 2920 2919
3023 3024 3025 3025 3025 3025 3024 3023 3023 3021 3020 3018 3017 3017 3016 3015 3013 3012 3010 3009 3007 3004 3002 3000 2997 2994 2990 2987 2983 2978 2973 2968 2962 2955 2949 2943 2936 2929 2922 2916 2911 2907 2904 2903
3017 3017 3018 3018 3018 3017 3017 3015 3013 3013 3013 3012 3012 3011 3010 3009 3007 3006 3005 3003 3001 2999 2996 2993 2990 2986 2982 2977 2973 2967 2961 2955 2948 2941 2934 2927 2920 2913 2907 2902 2897 2892 2889 2888
3011 3011 3011 3011 3010 3009 3008 3007 3007 3007 3007 3007 3007 3006 3004 3003 3002 3001 2999 2997 2994 2991 2988 2985 2981 2977 2972 2966 2961 2954 2947 2940 2933 2926 2919 2912 2906 2900 2895 2889 2885 2879 2876 2874
3002 3003 3003 3003 3002 3001 3001 3001 3001 3002 3002 3002 3001 3001 3000 2999 2997 2996 2994 2991 2988 2985 2981 2978 2973 2967 2961 2955 2948 2941 2934 2927 2920 2913 2906 2900 2895 2889 2883 2879 2874 2870 2867 2865
2995 2994 2994 2995 2995 2995 2996 2997 2997 2997 2997 2997 2996 2996 2994 2993 2991 2989 2987 2984 2981 2977 2972 2967 2962 2956 2949 2942 2935 2928 2921 2915 2908 2901 2895 2889 2883 2877 2873 2869 2865 2862 2861 2860
2989 2989 2990 2990 2991 2993 2993 2992 2993 2993 2993 2992 2991 2990 2988 2986 2984 2981 2978 2975 2972 2967 2962 2957 2951 2944 2938 2931 2924 2917 2910 2904 2897 2890 2884 2878 2872 2867 2862 2858 2854 2852 2850 2849
2984 2985 2986 2987 2988 2988 2988 2988 2989 2988 2987 2986 2985 2983 2981 2979 2977 2974 2971 2967 2962 2957 2952 2946 2940 2934 2927 2920 2913 2907 2900 2894 2887 2881 2875 2868 2863 2858 2853 2848 2844 2841 2839 2837
2982 2983 2982 2983 2983 2984 2984 2984 2984 2983 2982 2980 2978 2976 2975 2972 2969 2966 2961 2957 2952 2947 2941 2935 2929 2923 2917 2910 2904 2897 2891 2885 2878 2872 2866 2860 2854 2849 2844 2840 2835 2831 2828 2826
2979 2979 2979 2979 2979 2979 2979 2979 2978 2977 2976 2974 2972 2970 2968 2964 2961 2957 2953 2948 2943 2937 2931 2925 2919 2913 2907 2901 2895 2889 2883 2876 2871 2865 2859 2853 2847 2842 2837 2832 2827 2823 2819 2816
2975 2975 2975 2975 2975 2974 2974 2973 2971 2970 2968 2966 2964 2962 2959 2956 2953 2949 2944 2938 2932 2927 2921 2915 2909 2903 2898 2892 2886 2880 2874 2869 2863 2858 2852 2846 2841 2836 2830 2826 2821 2816 2812 2808
2971 2971 2971 2970 2970 2969 2967 2965 2964 2962 2960 2958 2956 2953 2950 2947 2943 2938 2933 2928 2922 2917 2911 2906 2900 2894 2889 2883 2878 2872 2867 2862 2857 2851 2846 2840 2835 2830 2825 2821 2816 2811 2807 2803
2967 2966 2965 2964 2963 2961 2959 2957 2956 2955 2953 2951 2948 2945 2942 2937 2932 2927 2922 2917 2912 2907 2902 2897 2891 2886 2880 2875 2870 2865 2860 2855 2850 2845 2840 2835 2830 2825 2820 2816 2811 2807 2802 2798